Location: Saint-Palais-sur-Mer
(45.6429°N, 1.0859°W)
Time: 09:44:07
(UTC+02:00)

ISS - Visible Passes

Search period start: 15 May 2021 00:00
Search period end: 25 May 2021 00:00
Orbit: 417 x 422 km, 51.6° (Epoch: 15 May)

Date Brightness Start Highest point End Pass type
(mag) Time Alt. Az. Time Alt. Az. Time Alt. Az.
15 May -3.1 00:25:16 10° WSW 00:28:35 56° NNW 00:31:56 10° ENE visible
15 May -1.7 02:02:52 10° WNW 02:05:51 28° N 02:08:51 10° ENE visible
15 May -2.4 03:40:00 10° NW 03:43:13 41° NNE 03:46:26 10° E visible
15 May -3.5 05:16:49 10° WNW 05:20:04 46° SW 05:23:19 10° SE visible
15 May -2.2 22:02:21 10° S 22:04:39 17° SE 22:06:58 10° E visible
15 May -3.7 23:37:45 10° WSW 23:41:06 80° NNW 23:44:29 10° ENE visible
16 May -1.8 01:15:13 10° WNW 01:18:15 30° N 01:21:18 10° NE visible
16 May -2.0 02:52:31 10° NW 02:55:39 34° NNE 02:58:46 10° E visible
16 May -3.9 04:29:18 10° WNW 04:32:41 73° SSW 04:36:03 10° SE visible
16 May -3.9 22:50:20 10° SW 22:53:40 69° SSE 22:57:02 10° ENE visible
17 May -2.0 00:27:33 10° W 00:30:40 34° NNW 00:33:48 10° NE visible
17 May -1.8 02:05:01 10° WNW 02:08:04 30° N 02:11:06 10° ENE visible
17 May -3.7 03:41:50 10° WNW 03:45:14 76° NNE 03:48:37 10° ESE visible
17 May -2.3 05:19:17 10° W 05:21:43 18° SW 05:24:08 10° S visible
17 May -3.4 22:03:04 10° SW 22:06:16 43° SE 22:09:29 10° ENE visible
17 May -2.4 23:39:53 10° W 23:43:06 42° NNW 23:46:21 10° NE visible
18 May -1.7 01:17:28 10° WNW 01:20:27 28° N 01:22:52 13° ENE visible
18 May -1.6 02:54:24 10° WNW 02:55:46 22° NW 02:55:46 22° NW visible
18 May -3.0 22:52:15 10° WSW 22:55:34 55° NNW 22:58:54 10° ENE visible
19 May -1.7 00:29:51 10° WNW 00:32:50 28° N 00:35:49 10° ENE visible
19 May -2.1 02:06:58 10° NW 02:09:22 34° NNW 02:09:22 34° NNW visible
19 May -3.6 22:04:42 10° WSW 22:08:04 79° NNW 22:11:27 10° ENE visible
19 May -1.8 23:42:11 10° WNW 23:45:13 30° N 23:48:16 10° NE visible
20 May -2.1 01:19:30 10° NW 01:22:37 34° NNE 01:23:11 31° NE visible
20 May -2.0 22:54:30 10° W 22:57:37 34° NNW 23:00:45 10° NE visible
21 May -1.8 00:31:58 10° WNW 00:35:00 30° N 00:37:05 16° ENE visible
21 May -1.5 02:08:47 10° WNW 02:10:01 21° WNW 02:10:01 21° WNW visible
21 May -2.4 22:06:49 10° W 22:10:02 42° NNW 22:13:16 10° NE visible
21 May -1.7 23:44:24 10° WNW 23:47:22 28° N 23:50:22 10° ENE visible
22 May -2.6 01:21:20 10° WNW 01:23:58 44° NNW 01:23:58 44° NNW visible
22 May -1.7 22:56:46 10° WNW 22:59:45 28° N 23:02:44 10° ENE visible
23 May -2.6 00:33:52 10° NW 00:37:06 41° NNE 00:37:56 34° NE visible
23 May -0.9 02:10:42 10° WNW 02:10:53 11° WNW 02:10:53 11° WNW visible
23 May -1.8 22:09:05 10° WNW 22:12:07 30° N 22:15:09 10° NE visible
23 May -2.2 23:46:23 10° NW 23:49:30 34° NNE 23:51:57 14° ENE visible
24 May -2.0 01:23:09 10° WNW 01:24:53 28° WNW 01:24:53 28° WNW visible
24 May -1.9 22:58:51 10° WNW 23:01:53 30° N 23:04:54 10° ENE visible
